This demonstration page uses our WeatherBlox Daily Observations layout. Learn more.

Left ArrowRight Arrow

Hourly Observations for January 23, 2022

Temp ( °F °C ) Dew Point ( °F °C ) Humidity (%) Winds ( mph kmh ) Pressure ( in mb ) Visibility ( mi km ) Precip ( " mm )
12:15 am 00:15 Cloudy 38 3.5 24 -4.2 57 57 WNW 9 15 30.17 1022 10 16 0.00 0.00
12:35 am 00:35 Mostly Cloudy 38 3.6 25 -4 58 58 WNW 13 20 30.16 1021 10 16 0.00 0.00
12:55 am 00:55 Clear 37 3 25 -4 60 60 WNW 13 20 30.17 1022 10 16 0.00 0.00
1:15 am 01:15 Clear 35 1.7 25 -4.1 66 66 WNW 12 19 30.18 1022 10 16 0.00 0.00
1:35 am 01:35 Clear 35 1.6 25 -3.8 68 68 WNW 12 19 30.17 1022 10 16 0.00 0.00
1:55 am 01:55 Clear 35 1.8 25 -3.7 67 67 WNW 12 19 30.16 1021 10 16 0.00 0.00
2:15 am 02:15 Clear 32 0 24 -4.4 73 73 NW 9 15 30.20 1023 10 16 0.00 0.00
2:35 am 02:35 Clear 31 -0.5 24 -4.7 74 74 NW 10 17 30.20 1023 10 16 0.00 0.00
2:55 am 02:55 Clear 31 -0.3 24 -4.3 75 75 WNW 10 17 30.19 1022 10 16 0.00 0.00
3:15 am 03:15 Clear 32 -0.1 24 -4.3 74 74 NNW 7 11 30.21 1023 10 16 0.00 0.00
3:35 am 03:35 Clear 32 0 25 -4.1 74 74 WNW 12 19 30.20 1023 10 16 0.00 0.00
3:55 am 03:55 Clear 31 -0.4 24 -4.3 75 75 NW 8 13 30.20 1023 10 16 0.00 0.00
4:15 am 04:15 Clear 31 -0.6 25 -4 78 78 NW 9 15 30.20 1023 10 16 0.00 0.00
4:35 am 04:35 Clear 31 -0.3 25 -3.9 77 77 NW 10 17 30.21 1023 10 16 0.00 0.00
4:55 am 04:55 Partly Cloudy 31 -0.4 25 -4 77 77 WNW 8 13 30.20 1023 10 16 0.00 0.00
5:15 am 05:15 Partly Cloudy 29 -1.9 24 -4.7 81 81 NW 9 15 30.22 1023 10 16 0.00 0.00
5:35 am 05:35 Clear 29 -1.8 24 -4.6 81 81 NW 7 11 30.22 1023 10 16 0.00 0.00
5:55 am 05:55 Clear 27 -2.8 23 -5.1 84 84 NNW 8 13 30.23 1024 10 16 0.00 0.00
6:15 am 06:15 Clear 25 -3.8 22 -5.7 87 87 NW 7 11 30.24 1024 10 16 0.00 0.00
6:35 am 06:35 Clear 25 -4.1 21 -6.1 86 86 NNW 7 11 30.24 1024 10 16 0.00 0.00
6:55 am 06:55 Clear 24 -4.3 21 -6.1 87 87 NW 6 9 30.23 1024 10 16 0.00 0.00
7:15 am 07:15 Clear 24 -4.4 21 -6.1 88 88 W 6 9 30.25 1024 10 16 0.00 0.00
7:35 am 07:35 Partly Cloudy 25 -3.9 22 -5.7 87 87 WSW 7 11 30.25 1024 10 16 0.00 0.00
7:55 am 07:55 Cloudy 25 -4.1 21 -6 87 87 Calm 30.25 1024 10 16 0.00 0.00
8:15 am 08:15 Cloudy 26 -3.6 22 -5.5 87 87 Calm 30.24 1024 10 16 0.00 0.00
8:35 am 08:35 Cloudy 25 -4 22 -5.7 88 88 WNW 5 7 30.26 1025 10 16 0.00 0.00
8:55 am 08:55 Cloudy 27 -3 24 -4.7 88 88 W 3 6 30.25 1024 10 16 0.00 0.00
9:15 am 09:15 Cloudy 29 -1.6 25 -3.9 85 85 Calm 30.22 1023 10 16 0.00 0.00
9:35 am 09:35 Mostly Cloudy 32 0 26 -3.1 80 80 WSW 5 7 30.19 1022 10 16 0.00 0.00
9:55 am 09:55 Sunny 36 2.2 26 -3.1 68 68 W 9 15 30.16 1021 10 16 0.00 0.00
10:15 am 10:15 Sunny 39 4.1 27 -2.7 62 62 W 10 17 30.14 1021 10 16 0.00 0.00
10:35 am 10:35 Sunny 42 5.3 27 -2.8 56 56 W 9 15 30.13 1020 10 16 0.00 0.00
10:55 am 10:55 Sunny 43 6.3 27 -2.7 53 53 W 8 13 30.10 1019 10 16 0.00 0.00
11:15 am 11:15 Sunny 46 7.5 27 -2.6 49 49 W 10 17 30.08 1019 10 16 0.00 0.00
11:35 am 11:35 Sunny 47 8.5 27 -2.7 46 46 W 13 20 30.06 1018 10 16 0.00 0.00
11:55 am 11:55 Sunny 49 9.2 27 -2.9 43 43 W 13 20 30.04 1017 10 16 0.00 0.00
12:15 pm 12:15 Mostly Cloudy 51 10.3 27 -2.7 40 40 W 16 26 30.01 1016 10 16 0.00 0.00
12:35 pm 12:35 Cloudy 51 10.7 27 -2.8 39 39 W 14 22 29.98 1015 10 16 0.00 0.00
12:55 pm 12:55 Cloudy 53 11.6 27 -2.9 36 36 W 13 20 29.96 1014 10 16 0.00 0.00
1:15 pm 13:15 Cloudy 55 12.7 26 -3.1 33 33 W 16 26 29.94 1014 10 16 0.00 0.00
1:35 pm 13:35 Cloudy 56 13.2 26 -3.5 31 31 W 18 30 29.91 1013 10 16 0.00 0.00
1:55 pm 13:55 Cloudy 55 13 26 -3.5 32 32 W 16 26 29.90 1013 10 16 0.00 0.00
2:15 pm 14:15 Cloudy 55 12.8 26 -3.6 32 32 WNW 15 24 29.90 1012 10 16 0.00 0.00
2:35 pm 14:35 Cloudy 54 12.2 25 -4 32 32 W 16 26 29.89 1012 10 16 0.00 0.00
2:55 pm 14:55 Cloudy 55 12.5 25 -4 32 32 W 15 24 29.88 1012 10 16 0.00 0.00
3:15 pm 15:15 Cloudy 55 12.7 25 -4 31 31 WNW 15 24 29.88 1012 10 16 0.00 0.00
3:35 pm 15:35 Cloudy 55 12.8 25 -4.1 31 31 WNW 16 26 29.88 1012 10 16 0.00 0.00
3:55 pm 15:55 Cloudy 55 12.7 25 -4.1 31 31 WNW 15 24 29.86 1011 10 16 0.00 0.00
4:15 pm 16:15 Cloudy 55 12.7 25 -4.1 31 31 W 17 28 29.86 1011 10 16 0.00 0.00
4:35 pm 16:35 Cloudy 54 12.4 25 -4.1 32 32 W 14 22 29.84 1010 10 16 0.00 0.00
4:55 pm 16:55 Cloudy 53 11.9 25 -4.1 33 33 W 13 20 29.84 1011 10 16 0.00 0.00
5:15 pm 17:15 Cloudy 52 11.1 25 -4.1 34 34 W 10 17 29.84 1011 10 16 0.00 0.00
5:35 pm 17:35 Cloudy 50 10 24 -4.2 37 37 W 8 13 29.85 1011 10 16 0.00 0.00
5:55 pm 17:55 Cloudy 47 8.5 24 -4.5 40 40 W 7 11 29.87 1011 10 16 0.00 0.00
6:15 pm 18:15 Cloudy 46 7.5 24 -4.6 42 42 W 8 13 29.86 1011 10 16 0.00 0.00
6:35 pm 18:35 Mostly Cloudy 43 6.1 23 -5 45 45 W 9 15 29.88 1012 10 16 0.00 0.00
6:55 pm 18:55 Cloudy 45 7.3 24 -4.2 44 44 W 10 17 29.87 1011 10 16 0.00 0.00
7:15 pm 19:15 Cloudy 44 6.7 24 -4.5 45 45 W 8 13 29.86 1011 10 16 0.00 0.00
7:35 pm 19:35 Mostly Cloudy 40 4.7 23 -5 50 50 W 10 17 29.88 1012 10 16 0.00 0.00
7:55 pm 19:55 Partly Cloudy 41 4.9 23 -4.9 49 49 W 10 17 29.88 1012 10 16 0.00 0.00
8:15 pm 20:15 Mostly Cloudy 38 3.3 22 -5.4 53 53 WNW 9 15 29.90 1013 10 16 0.00 0.00
8:35 pm 20:35 Cloudy 39 4.1 24 -4.7 53 53 W 9 15 29.89 1012 10 16 0.00 0.00
8:55 pm 20:55 Cloudy 39 4 24 -4.5 54 54 WNW 8 13 29.89 1012 10 16 0.00 0.00
9:15 pm 21:15 Cloudy 38 3.5 24 -4.5 56 56 NW 3 6 29.88 1012 10 16 0.00 0.00
9:35 pm 21:35 Cloudy 38 3.1 23 -5 56 56 WNW 3 6 29.89 1012 10 16 0.00 0.00
9:55 pm 21:55 Cloudy 38 3.5 24 -4.7 55 55 W 9 15 29.87 1012 10 16 0.00 0.00
10:15 pm 22:15 Cloudy 43 6.3 26 -3.6 50 50 W 10 17 29.84 1010 10 16 0.00 0.00
10:35 pm 22:35 Cloudy 44 6.9 26 -3.5 48 48 W 12 19 29.83 1010 10 16 0.00 0.00
10:55 pm 22:55 Cloudy 45 7 25 -3.7 47 47 WNW 9 15 29.83 1010 10 16 0.00 0.00
11:15 pm 23:15 Cloudy 46 7.7 26 -3.6 45 45 WNW 12 19 29.82 1010 10 16 0.00 0.00
11:35 pm 23:35 Cloudy 45 7.2 25 -4 45 45 WNW 10 17 29.82 1010 10 16 0.00 0.00
11:55 pm 23:55 Cloudy 43 6 25 -4 49 49 WNW 10 17 29.83 1010 10 16 0.00 0.00

Powered by AerisWeather